[ hide orbit diagram ]
For accurate long-term ephemerides, please instead use our Horizons system.This orbit viewer was implemented using two-body methods, and hence should not be used for determining accurate long-term trajectories (over several years or decades) or planetary encounter circumstances.
Orbital Elements at Epoch 2459000.5 (2020-May-31.0) TDB
Reference: JPL 14 (heliocentric ecliptic J2000)
Element | Value | Uncertainty (1-sigma) | Units |
e | .1765191885540312 | 4.2476e-08 | |
a | 3.167886576657792 | 3.1711e-08 | au |
q | 2.608693808714951 | 1.3922e-07 | au |
i | 12.70046839792838 | 6.94e-06 | deg |
node | 357.6568085387649 | 2.0653e-05 | deg |
peri | 286.405866555146 | 2.8121e-05 | deg |
M | 261.0879383362716 | 1.9017e-05 | deg |
tp | 2459566.347779202107 (2021-Dec-17.84777920) | 0.00011187 | TDB |
period | 2059.457634249862 5.64 | 3.0923e-05 8.466e-08 | d yr |
n | .1748033045268866 | 2.6247e-09 | deg/d |
Q | 3.727079344600634 | 3.7309e-08 | au |
|
| | Orbit Determination Parameters
Additional Information
|
[ show covariance matrix ]
Physical Parameter Table
Parameter |
Symbol |
Value |
Units |
Sigma |
Reference |
Notes |
absolute magnitude |
H |
14.7 |
|
n/a |
MPO432675 |
|
|
117027 (2004 JS12) Discovered 2004-May-13 by Broughton, J. at Reedy Creek |
Reference: 20051019/Numbers.arc | Last Updated: 2005-10-26 |
|
[ show close-approach data ]
|